South Hill, VA

2:53 PM EST on November 20, 2019 (GMT -0500)
Mecklenburg-Brunswick Regional

Weather History for KAVC - August, 2019

Change the Weather History Date:

Wednesday, August 14, 2019

  Actual Average (WUND) Record (WUND)
Temperature  
Mean Temperature 81 °F -  
Max Temperature 92 °F - - (-1)
Min Temperature 71 °F - - (-1)
Cooling Degree Days 16    
Growing Degree Days 31 (Base 50)    
Moisture  
Dew Point 74 °F    
Average Humidity 82    
Maximum Humidity 100    
Minimum Humidity 53    
Precipitation  
Precipitation 0.00 in - - ()
Sea Level Pressure  
Sea Level Pressure 29.90 in    
Wind  
Wind Speed 5 mph (SW)    
Max Wind Speed 8 mph    
Max Gust Speed -    
Visibility 10 miles    
Events      
Averages and records for this station are not official NWS values.
T = Trace of Precipitation, MM = Missing Value Source: NWS Daily Summary

Daily Weather History Graph

Daily Weather History Graph

Search for Another Location

Airport or City:

Astronomy

Aug. 14, 2019 Rise Set
Actual Time 6:28 AM EDT 8:04 PM EDT
Civil Twilight 6:00 AM EDT 8:32 PM EDT
Nautical Twilight 5:27 AM EDT 9:05 PM EDT
Astronomical Twilight 4:52 AM EDT 9:40 PM EDT
Moon 7:55 PM EDT (8/14) 5:26 AM EDT (8/14)
Length of Visible Light 14h 31m
Length of Day
13h 36m
Waxing Gibbous, 99% of the Moon is Illuminated
Aug 14
Waxing Gibbous
Aug 15
Full
Aug 23
Last Quarter
Aug 30
New
Sep 5
First Quarter

Hourly Weather History & Observations

Time (EDT) Temp. Heat Index Dew Point Humidity Pressure Visibility Wind Dir Wind Speed Gust Speed Precip Events Conditions
12:15 AM 71.6 °F - 71.6 °F 100% 29.88 in 10.0 mi SSW 6.9 mph - N/A   Clear
12:35 AM 71.6 °F - 71.6 °F 100% 29.88 in 10.0 mi SSW 5.8 mph - N/A   Clear
12:55 AM 72.1 °F - 72.1 °F 100% 29.88 in 10.0 mi SSW 8.1 mph - N/A   Clear
1:15 AM 72.5 °F - 72.5 °F 100% 29.88 in 10.0 mi SSW 6.9 mph - N/A   Clear
1:35 AM 72.1 °F - 72.1 °F 100% 29.88 in 10.0 mi SSW 6.9 mph - N/A   Clear
1:55 AM 72.5 °F - 72.5 °F 100% 29.88 in 10.0 mi SSW 5.8 mph - N/A   Clear
2:15 AM 72.5 °F - 72.5 °F 100% 29.87 in 10.0 mi SSW 5.8 mph - N/A   Clear
2:35 AM 72.5 °F - 72.5 °F 100% 29.87 in 10.0 mi SSW 5.8 mph - N/A   Clear
2:55 AM 72.7 °F - 72.7 °F 100% 29.87 in 10.0 mi SSW 5.8 mph - N/A   Clear
3:20 AM 72.7 °F - 72.7 °F 100% 29.87 in 10.0 mi SSW 4.6 mph - N/A   Clear
3:35 AM 72.7 °F - 72.7 °F 100% 29.88 in 10.0 mi SW 5.8 mph - N/A   Clear
3:55 AM 72.5 °F - 72.5 °F 100% 29.88 in 10.0 mi SSW 4.6 mph - N/A   Clear
4:15 AM 72.5 °F - 72.5 °F 100% 29.88 in 10.0 mi SSW 4.6 mph - N/A   Clear
4:35 AM 73.2 °F - 73.2 °F 100% 29.89 in 10.0 mi SW 6.9 mph - N/A   Clear
4:55 AM 73.4 °F - 73.4 °F 100% 29.89 in 10.0 mi SW 6.9 mph - N/A   Clear
5:15 AM 73.6 °F - 73.4 °F 99% 29.90 in 10.0 mi WSW 6.9 mph - N/A   Clear
5:35 AM 74.3 °F - 73.0 °F 96% 29.90 in 10.0 mi WSW 6.9 mph - N/A   Clear
5:55 AM 74.3 °F - 72.9 °F 95% 29.91 in 10.0 mi SW 6.9 mph - N/A   Clear
6:15 AM 74.3 °F - 72.9 °F 95% 29.92 in 10.0 mi SW 4.6 mph - N/A   Clear
6:35 AM 74.3 °F - 72.9 °F 95% 29.92 in 10.0 mi WSW 5.8 mph - N/A   Clear
6:55 AM 74.5 °F - 73.4 °F 96% 29.91 in 10.0 mi West 5.8 mph - N/A   Clear
7:15 AM 74.8 °F - 73.4 °F 95% 29.91 in 10.0 mi West 5.8 mph - N/A   Clear
7:35 AM 75.2 °F - 73.6 °F 95% 29.90 in 10.0 mi WSW 3.5 mph - N/A   Clear
7:55 AM 75.0 °F - 73.6 °F 95% 29.89 in 10.0 mi West 4.6 mph - N/A   Clear
8:15 AM 75.6 °F - 73.8 °F 94% 29.89 in 10.0 mi Calm Calm - N/A   Clear
8:35 AM 76.1 °F - 73.9 °F 93% 29.87 in 10.0 mi Calm Calm - N/A   Clear
8:55 AM 77.7 °F - 74.3 °F 89% 29.87 in 10.0 mi NNW 4.6 mph - N/A   Clear
9:15 AM 79.3 °F - 74.7 °F 86% 29.86 in 10.0 mi Calm Calm - N/A   Clear
9:35 AM 79.7 °F - 74.5 °F 84% 29.87 in 10.0 mi Calm Calm - N/A   Clear
9:55 AM 80.4 °F 86.1 °F 75.7 °F 86% 29.88 in 10.0 mi SSW 6.9 mph - N/A   Clear
10:15 AM 80.1 °F 85.5 °F 76.1 °F 88% 29.89 in 10.0 mi SSW 5.8 mph - N/A   Clear
10:35 AM 81.7 °F 89.2 °F 76.6 °F 85% 29.89 in 10.0 mi SSW 6.9 mph - N/A   Clear
10:55 AM 81.9 °F 89.2 °F 76.3 °F 83% 29.91 in 10.0 mi SW 6.9 mph - N/A   Clear
11:15 AM 82.6 °F 90.8 °F 76.6 °F 82% 29.91 in 10.0 mi SW 6.9 mph - N/A   Clear
11:35 AM 85.5 °F 96.3 °F 77.2 °F 76% 29.91 in 10.0 mi SW 6.9 mph - N/A   Clear
11:55 AM 86.0 °F 96.0 °F 75.9 °F 72% 29.91 in 10.0 mi SSW 5.8 mph - N/A   Clear
12:15 PM 86.9 °F 97.8 °F 76.5 °F 71% 29.91 in 10.0 mi South 3.5 mph - N/A   Clear
12:35 PM 88.2 °F 98.5 °F 75.6 °F 66% 29.91 in 10.0 mi SE 3.5 mph - N/A   Clear
12:55 PM 88.5 °F 101.1 °F 77.0 °F 69% 29.90 in 10.0 mi South 3.5 mph - N/A   Scattered Clouds
1:15 PM 89.4 °F 100.0 °F 75.6 °F 63% 29.90 in 10.0 mi SW 5.8 mph - N/A   Mostly Cloudy
1:35 PM 90.1 °F 101.2 °F 75.7 °F 62% 29.89 in 10.0 mi South 4.6 mph - N/A   Mostly Cloudy
1:55 PM 90.7 °F 101.3 °F 75.2 °F 60% 29.90 in 10.0 mi Calm Calm - N/A   Overcast
2:15 PM 88.7 °F 100.4 °F 76.3 °F 67% 29.90 in 10.0 mi North 5.8 mph - N/A   Overcast
2:35 PM 87.3 °F 98.2 °F 76.3 °F 70% 29.90 in 10.0 mi Calm Calm - N/A   Overcast
2:55 PM 88.2 °F 99.0 °F 75.9 °F 67% 29.90 in 10.0 mi Calm Calm - N/A   Overcast
3:15 PM 89.8 °F 99.2 °F 74.3 °F 60% 29.89 in 10.0 mi Calm Calm - N/A   Mostly Cloudy
3:35 PM 89.8 °F 99.7 °F 74.8 °F 61% 29.89 in 10.0 mi Calm Calm - N/A   Scattered Clouds
3:55 PM 91.2 °F 101.4 °F 74.7 °F 58% 29.89 in 10.0 mi West 4.6 mph - N/A   Scattered Clouds
4:15 PM 91.9 °F 101.3 °F 73.6 °F 55% 29.89 in 10.0 mi WNW 4.6 mph - N/A   Scattered Clouds
4:35 PM 91.4 °F 99.5 °F 72.5 °F 54% 29.88 in 10.0 mi WNW 4.6 mph - N/A   Mostly Cloudy
4:55 PM 91.6 °F 99.3 °F 72.1 °F 53% 29.87 in 10.0 mi WNW 3.5 mph - N/A   Scattered Clouds
5:15 PM 91.6 °F 99.3 °F 72.3 °F 53% 29.87 in 10.0 mi WSW 5.8 mph - N/A   Clear
5:35 PM 89.1 °F 97.0 °F 73.0 °F 59% 29.87 in 10.0 mi WSW 3.5 mph - N/A   Clear
5:55 PM 89.1 °F 97.0 °F 73.2 °F 59% 29.87 in 10.0 mi Calm Calm - N/A   Clear
6:15 PM 90.5 °F 99.2 °F 73.6 °F 57% 29.87 in 10.0 mi Calm Calm - N/A   Scattered Clouds
6:35 PM 90.7 °F 99.0 °F 73.0 °F 56% 29.87 in 10.0 mi WSW 3.5 mph - N/A   Scattered Clouds
6:55 PM 88.0 °F 98.5 °F 75.9 °F 67% 29.88 in 10.0 mi Calm Calm - N/A   Scattered Clouds
7:15 PM 86.4 °F 98.8 °F 77.9 °F 76% 29.88 in 10.0 mi South 4.6 mph - N/A   Mostly Cloudy
7:35 PM 86.2 °F 98.3 °F 77.9 °F 76% 29.89 in 10.0 mi Calm Calm - N/A   Overcast
7:55 PM 84.6 °F 94.7 °F 77.0 °F 78% 29.90 in 10.0 mi Calm Calm - N/A   Overcast
8:15 PM 83.1 °F 92.9 °F 77.7 °F 84% 29.90 in 10.0 mi South 4.6 mph - N/A   Overcast
8:35 PM 82.8 °F 91.0 °F 76.5 °F 81% 29.91 in 10.0 mi WSW 4.6 mph - N/A   Scattered Clouds
8:55 PM 81.5 °F 87.8 °F 75.0 °F 81% 29.92 in 10.0 mi West 3.5 mph - N/A   Clear
9:15 PM 80.1 °F 84.9 °F 74.8 °F 84% 29.92 in 10.0 mi Calm Calm - N/A   Clear
9:35 PM 79.2 °F - 73.8 °F 83% 29.93 in 10.0 mi SW 3.5 mph - N/A   Clear
9:55 PM 77.7 °F - 73.0 °F 85% 29.93 in 10.0 mi SW 3.5 mph - N/A   Clear
10:15 PM 76.5 °F - 73.2 °F 90% 29.95 in 10.0 mi SSW 4.6 mph - N/A   Clear
10:35 PM 76.5 °F - 72.9 °F 89% 29.96 in 10.0 mi SW 3.5 mph - N/A   Clear
10:55 PM 76.3 °F - 72.9 °F 89% 29.96 in 10.0 mi Calm Calm - N/A   Clear
11:15 PM 74.1 °F - 73.9 °F 99% 29.97 in 10.0 mi SW 4.6 mph - N/A   Clear
11:35 PM 76.5 °F - 72.1 °F 86% 29.97 in 10.0 mi SSW 5.8 mph - N/A   Clear
11:55 PM 76.5 °F - 72.0 °F 86% 29.97 in 10.0 mi WSW 3.5 mph - N/A   Mostly Cloudy